Time,TemperatureF,DewpointF,PressureIn,WindDirection,WindDirectionDegrees,WindSpeedMPH,WindSpeedGustMPH,Humidity,HourlyPrecipIn,Conditions,Clouds,dailyrainin,SoftwareType,DateUTC
2013-12-11 00:01:00,21.1,14.7,30.31,SSW,195,0.0,1.0,76,0.00,,,0.00,Wunderground v.1.15,2013-12-11 05:01:00,
2013-12-11 00:03:00,21.1,14.7,30.31,SSW,195,0.0,1.0,76,0.00,,,0.00,Wunderground v.1.15,2013-12-11 05:03:00,
2013-12-11 00:04:00,21.1,14.7,30.32,SSW,195,0.0,1.0,76,0.00,,,0.00,Wunderground v.1.15,2013-12-11 05:04:00,
2013-12-11 00:06:00,21.0,14.6,30.32,SSW,195,0.0,1.0,76,0.00,,,0.00,Wunderground v.1.15,2013-12-11 05:06:00,
2013-12-11 00:11:00,20.9,14.5,30.32,NNE,20,0.0,1.0,76,0.00,,,0.00,Wunderground v.1.15,2013-12-11 05:11:00,
2013-12-11 00:15:00,20.8,14.4,30.32,ESE,109,0.0,1.0,76,0.00,,,0.00,Wunderground v.1.15,2013-12-11 05:15:00,
2013-12-11 00:17:00,20.8,14.4,30.32,ESE,109,0.0,1.0,76,0.00,,,0.00,Wunderground v.1.15,2013-12-11 05:17:00,
2013-12-11 00:22:00,20.9,14.5,30.32,SSE,166,0.0,0.0,76,0.00,,,0.00,Wunderground v.1.15,2013-12-11 05:22:00,
2013-12-11 00:28:00,21.1,14.4,30.33,South,172,1.0,3.0,75,0.00,,,0.00,Wunderground v.1.15,2013-12-11 05:28:00,
2013-12-11 00:33:00,21.2,14.5,30.33,ESE,121,1.0,3.0,75,0.00,,,0.00,Wunderground v.1.15,2013-12-11 05:33:00,
2013-12-11 00:38:00,21.3,14.3,30.33,ENE,68,1.0,3.0,74,0.00,,,0.00,Wunderground v.1.15,2013-12-11 05:38:00,
2013-12-11 00:44:00,21.4,14.4,30.33,SE,129,0.0,1.0,74,0.00,,,0.00,Wunderground v.1.15,2013-12-11 05:44:00,
2013-12-11 00:49:00,21.3,14.3,30.32,ESE,109,0.0,1.0,74,0.00,,,0.00,Wunderground v.1.15,2013-12-11 05:49:00,
2013-12-11 00:54:00,21.2,14.5,30.33,ESE,109,0.0,0.0,75,0.00,,,0.00,Wunderground v.1.15,2013-12-11 05:54:00,
2013-12-11 00:59:00,21.1,14.1,30.33,ESE,109,0.0,0.0,74,0.00,,,0.00,Wunderground v.1.15,2013-12-11 05:59:00,
2013-12-11 01:04:00,20.9,14.2,30.33,ESE,109,0.0,0.0,75,0.00,,,0.00,Wunderground v.1.15,2013-12-11 06:04:00,
2013-12-11 01:10:00,20.6,14.2,30.33,ESE,109,0.0,0.0,76,0.00,,,0.00,Wunderground v.1.15,2013-12-11 06:10:00,
2013-12-11 01:15:00,20.5,14.1,30.33,SSE,159,0.0,1.0,76,0.00,,,0.00,Wunderground v.1.15,2013-12-11 06:15:00,
2013-12-11 01:20:00,20.4,14.3,30.33,SSE,159,0.0,0.0,77,0.00,,,0.00,Wunderground v.1.15,2013-12-11 06:20:00,
2013-12-11 01:26:00,20.2,14.1,30.33,SE,132,0.0,1.0,77,0.00,,,0.00,Wunderground v.1.15,2013-12-11 06:26:00,
2013-12-11 01:31:00,20.2,14.1,30.33,SE,132,0.0,1.0,77,0.00,,,0.00,Wunderground v.1.15,2013-12-11 06:31:00,
2013-12-11 01:37:00,20.1,14.0,30.33,SE,132,0.0,1.0,77,0.00,,,0.00,Wunderground v.1.15,2013-12-11 06:37:00,
2013-12-11 01:42:00,19.9,14.1,30.33,SE,132,0.0,0.0,78,0.00,,,0.00,Wunderground v.1.15,2013-12-11 06:42:00,
2013-12-11 01:47:00,19.8,14.0,30.34,SE,132,0.0,0.0,78,0.00,,,0.00,Wunderground v.1.15,2013-12-11 06:47:00,
2013-12-11 01:52:00,19.7,14.0,30.34,West,269,0.0,0.0,78,0.00,,,0.00,Wunderground v.1.15,2013-12-11 06:52:00,
2013-12-11 01:57:00,19.6,14.1,30.34,SSW,194,0.0,0.0,79,0.00,,,0.00,Wunderground v.1.15,2013-12-11 06:57:00,
2013-12-11 02:03:00,19.9,14.1,30.34,East,95,0.0,2.0,78,0.00,,,0.00,Wunderground v.1.15,2013-12-11 07:03:00,
2013-12-11 02:08:00,20.0,14.2,30.34,East,95,0.0,2.0,78,0.00,,,0.00,Wunderground v.1.15,2013-12-11 07:08:00,
2013-12-11 02:13:00,19.9,14.1,30.34,East,95,0.0,0.0,78,0.00,,,0.00,Wunderground v.1.15,2013-12-11 07:13:00,
2013-12-11 02:18:00,19.8,14.0,30.34,South,177,0.0,2.0,78,0.00,,,0.00,Wunderground v.1.15,2013-12-11 07:18:00,
2013-12-11 02:24:00,19.8,14.3,30.35,South,177,0.0,0.0,79,0.00,,,0.00,Wunderground v.1.15,2013-12-11 07:24:00,
2013-12-11 02:29:00,19.6,14.1,30.35,South,177,0.0,1.0,79,0.00,,,0.00,Wunderground v.1.15,2013-12-11 07:29:00,
2013-12-11 02:34:00,19.5,14.0,30.35,South,173,0.0,1.0,79,0.00,,,0.00,Wunderground v.1.15,2013-12-11 07:34:00,
2013-12-11 02:40:00,19.5,14.3,30.35,South,173,0.0,0.0,80,0.00,,,0.00,Wunderground v.1.15,2013-12-11 07:40:00,
2013-12-11 02:45:00,19.2,14.3,30.36,South,173,0.0,0.0,81,0.00,,,0.00,Wunderground v.1.15,2013-12-11 07:45:00,
2013-12-11 02:50:00,19.1,14.2,30.36,South,173,0.0,0.0,81,0.00,,,0.00,Wunderground v.1.15,2013-12-11 07:50:00,
2013-12-11 02:55:00,19.1,14.2,30.36,North,5,0.0,1.0,81,0.00,,,0.00,Wunderground v.1.15,2013-12-11 07:55:00,
2013-12-11 03:00:00,19.0,14.1,30.36,ESE,123,0.0,0.0,81,0.00,,,0.00,Wunderground v.1.15,2013-12-11 08:00:00,
2013-12-11 03:06:00,19.1,13.9,30.36,ESE,123,0.0,0.0,80,0.00,,,0.00,Wunderground v.1.15,2013-12-11 08:06:00,
2013-12-11 03:11:00,19.0,14.1,30.36,ESE,123,0.0,0.0,81,0.00,,,0.00,Wunderground v.1.15,2013-12-11 08:11:00,
2013-12-11 03:16:00,18.9,14.0,30.36,ESE,123,0.0,0.0,81,0.00,,,0.00,Wunderground v.1.15,2013-12-11 08:16:00,
2013-12-11 03:21:00,18.8,14.2,30.36,ESE,123,0.0,0.0,82,0.00,,,0.00,Wunderground v.1.15,2013-12-11 08:21:00,
2013-12-11 03:27:00,18.8,14.2,30.36,ESE,123,0.0,0.0,82,0.00,,,0.00,Wunderground v.1.15,2013-12-11 08:27:00,
2013-12-11 03:32:00,18.7,14.1,30.37,ESE,123,0.0,0.0,82,0.00,,,0.00,Wunderground v.1.15,2013-12-11 08:32:00,
2013-12-11 03:37:00,18.6,14.0,30.37,SE,127,0.0,1.0,82,0.00,,,0.00,Wunderground v.1.15,2013-12-11 08:37:00,
2013-12-11 03:43:00,18.5,13.9,30.37,SE,127,0.0,0.0,82,0.00,,,0.00,Wunderground v.1.15,2013-12-11 08:43:00,
2013-12-11 03:48:00,18.5,13.9,30.37,SE,126,0.0,0.0,82,0.00,,,0.00,Wunderground v.1.15,2013-12-11 08:48:00,
2013-12-11 03:53:00,18.4,13.8,30.37,SE,126,0.0,0.0,82,0.00,,,0.00,Wunderground v.1.15,2013-12-11 08:53:00,
2013-12-11 03:58:00,18.4,13.8,30.37,SE,127,0.0,0.0,82,0.00,,,0.00,Wunderground v.1.15,2013-12-11 08:58:00,
2013-12-11 04:04:00,18.4,13.8,30.37,SE,127,0.0,0.0,82,0.00,,,0.00,Wunderground v.1.15,2013-12-11 09:04:00,
2013-12-11 04:09:00,18.5,13.9,30.37,SE,126,0.0,0.0,82,0.00,,,0.00,Wunderground v.1.15,2013-12-11 09:09:00,
2013-12-11 04:14:00,18.5,13.9,30.38,SE,126,0.0,0.0,82,0.00,,,0.00,Wunderground v.1.15,2013-12-11 09:14:00,
2013-12-11 04:19:00,18.4,13.8,30.37,SE,126,0.0,0.0,82,0.00,,,0.00,Wunderground v.1.15,2013-12-11 09:19:00,
2013-12-11 04:25:00,18.4,13.8,30.38,SE,127,0.0,1.0,82,0.00,,,0.00,Wunderground v.1.15,2013-12-11 09:25:00,
2013-12-11 04:30:00,18.3,13.7,30.38,SE,127,0.0,0.0,82,0.00,,,0.00,Wunderground v.1.15,2013-12-11 09:30:00,
2013-12-11 04:35:00,18.2,13.6,30.38,SE,126,0.0,0.0,82,0.00,,,0.00,Wunderground v.1.15,2013-12-11 09:35:00,
2013-12-11 04:40:00,18.2,13.9,30.38,SE,127,0.0,0.0,83,0.00,,,0.00,Wunderground v.1.15,2013-12-11 09:40:00,
2013-12-11 04:46:00,18.1,13.8,30.38,SE,127,0.0,0.0,83,0.00,,,0.00,Wunderground v.1.15,2013-12-11 09:46:00,
2013-12-11 04:51:00,18.1,13.8,30.38,SE,126,0.0,0.0,83,0.00,,,0.00,Wunderground v.1.15,2013-12-11 09:51:00,
2013-12-11 04:57:00,18.1,13.8,30.38,SE,127,0.0,0.0,83,0.00,,,0.00,Wunderground v.1.15,2013-12-11 09:57:00,
2013-12-11 05:02:00,18.1,13.8,30.38,SE,126,0.0,0.0,83,0.00,,,0.00,Wunderground v.1.15,2013-12-11 10:02:00,
2013-12-11 05:07:00,18.0,13.7,30.38,SE,127,0.0,0.0,83,0.00,,,0.00,Wunderground v.1.15,2013-12-11 10:07:00,
2013-12-11 05:12:00,17.9,13.6,30.38,ENE,78,0.0,2.0,83,0.00,,,0.00,Wunderground v.1.15,2013-12-11 10:12:00,
2013-12-11 05:17:00,17.9,13.6,30.38,ENE,78,0.0,2.0,83,0.00,,,0.00,Wunderground v.1.15,2013-12-11 10:17:00,
2013-12-11 05:23:00,18.0,13.7,30.39,ENE,78,0.0,0.0,83,0.00,,,0.00,Wunderground v.1.15,2013-12-11 10:23:00,
2013-12-11 05:28:00,18.0,13.7,30.39,ENE,76,0.0,0.0,83,0.00,,,0.00,Wunderground v.1.15,2013-12-11 10:28:00,
2013-12-11 05:33:00,18.0,13.7,30.39,ENE,76,0.0,1.0,83,0.00,,,0.00,Wunderground v.1.15,2013-12-11 10:33:00,
2013-12-11 05:38:00,18.0,13.7,30.39,SSE,148,0.0,1.0,83,0.00,,,0.00,Wunderground v.1.15,2013-12-11 10:38:00,
2013-12-11 05:44:00,18.0,13.7,30.39,SSE,148,0.0,0.0,83,0.00,,,0.00,Wunderground v.1.15,2013-12-11 10:44:00,
2013-12-11 05:49:00,17.9,13.6,30.39,SE,145,0.0,0.0,83,0.00,,,0.00,Wunderground v.1.15,2013-12-11 10:49:00,
2013-12-11 05:54:00,17.9,13.6,30.39,SE,145,0.0,0.0,83,0.00,,,0.00,Wunderground v.1.15,2013-12-11 10:54:00,
2013-12-11 05:59:00,17.7,13.7,30.40,SE,145,0.0,0.0,84,0.00,,,0.00,Wunderground v.1.15,2013-12-11 10:59:00,
2013-12-11 06:04:00,17.7,13.7,30.39,SE,145,0.0,0.0,84,0.00,,,0.00,Wunderground v.1.15,2013-12-11 11:04:00,
2013-12-11 06:10:00,17.8,13.5,30.39,North,355,0.0,1.0,83,0.00,,,0.00,Wunderground v.1.15,2013-12-11 11:10:00,
2013-12-11 06:15:00,17.8,13.5,30.39,NW,315,0.0,1.0,83,0.00,,,0.00,Wunderground v.1.15,2013-12-11 11:15:00,
2013-12-11 06:20:00,17.8,13.5,30.40,SW,219,0.0,0.0,83,0.00,,,0.00,Wunderground v.1.15,2013-12-11 11:20:00,
2013-12-11 06:25:00,17.7,13.7,30.40,SW,219,0.0,0.0,84,0.00,,,0.00,Wunderground v.1.15,2013-12-11 11:25:00,
2013-12-11 06:31:00,17.9,13.6,30.40,ENE,68,0.0,0.0,83,0.00,,,0.00,Wunderground v.1.15,2013-12-11 11:31:00,
2013-12-11 06:37:00,18.0,13.7,30.40,ENE,68,0.0,0.0,83,0.00,,,0.00,Wunderground v.1.15,2013-12-11 11:37:00,
2013-12-11 06:42:00,17.9,13.6,30.41,ENE,63,0.0,1.0,83,0.00,,,0.00,Wunderground v.1.15,2013-12-11 11:42:00,
2013-12-11 06:47:00,17.9,13.6,30.40,ENE,63,0.0,1.0,83,0.00,,,0.00,Wunderground v.1.15,2013-12-11 11:47:00,
2013-12-11 06:52:00,17.8,13.5,30.40,NE,47,0.0,0.0,83,0.00,,,0.00,Wunderground v.1.15,2013-12-11 11:52:00,
2013-12-11 06:57:00,17.7,13.7,30.40,East,101,0.0,1.0,84,0.00,,,0.00,Wunderground v.1.15,2013-12-11 11:57:00,
2013-12-11 07:03:00,17.8,13.8,30.40,East,101,0.0,0.0,84,0.00,,,0.00,Wunderground v.1.15,2013-12-11 12:03:00,
2013-12-11 07:08:00,17.9,13.9,30.40,East,101,0.0,0.0,84,0.00,,,0.00,Wunderground v.1.15,2013-12-11 12:08:00,
2013-12-11 07:13:00,17.8,13.5,30.41,East,101,0.0,0.0,83,0.00,,,0.00,Wunderground v.1.15,2013-12-11 12:13:00,
2013-12-11 07:19:00,17.7,13.7,30.41,East,101,0.0,0.0,84,0.00,,,0.00,Wunderground v.1.15,2013-12-11 12:19:00,
2013-12-11 07:24:00,17.5,13.5,30.41,East,101,0.0,0.0,84,0.00,,,0.00,Wunderground v.1.15,2013-12-11 12:24:00,
2013-12-11 07:29:00,17.4,13.7,30.41,ESE,117,0.0,0.0,85,0.00,,,0.00,Wunderground v.1.15,2013-12-11 12:29:00,
2013-12-11 07:34:00,17.4,13.7,30.41,ESE,123,0.0,0.0,85,0.00,,,0.00,Wunderground v.1.15,2013-12-11 12:34:00,
2013-12-11 07:39:00,17.5,13.8,30.41,ESE,123,0.0,0.0,85,0.00,,,0.00,Wunderground v.1.15,2013-12-11 12:39:00,
2013-12-11 07:44:00,17.5,13.8,30.41,ESE,123,0.0,0.0,85,0.00,,,0.00,Wunderground v.1.15,2013-12-11 12:44:00,
2013-12-11 07:49:00,17.6,13.9,30.41,ESE,123,0.0,0.0,85,0.00,,,0.00,Wunderground v.1.15,2013-12-11 12:49:00,
2013-12-11 07:55:00,17.9,14.2,30.41,NE,51,0.0,7.0,85,0.00,,,0.00,Wunderground v.1.15,2013-12-11 12:55:00,
2013-12-11 08:00:00,18.1,14.4,30.41,NE,51,0.0,0.0,85,0.00,,,0.00,Wunderground v.1.15,2013-12-11 13:00:00,
2013-12-11 08:06:00,18.2,14.2,30.41,NE,51,0.0,1.0,84,0.00,,,0.00,Wunderground v.1.15,2013-12-11 13:06:00,
2013-12-11 08:11:00,18.3,14.3,30.42,ENE,71,0.0,0.0,84,0.00,,,0.00,Wunderground v.1.15,2013-12-11 13:11:00,
2013-12-11 08:16:00,18.4,14.4,30.42,ENE,71,0.0,0.0,84,0.00,,,0.00,Wunderground v.1.15,2013-12-11 13:16:00,
2013-12-11 08:21:00,18.6,14.6,30.42,ENE,71,0.0,0.0,84,0.00,,,0.00,Wunderground v.1.15,2013-12-11 13:21:00,
2013-12-11 08:26:00,18.9,14.9,30.42,East,94,0.0,1.0,84,0.00,,,0.00,Wunderground v.1.15,2013-12-11 13:26:00,
2013-12-11 08:31:00,19.4,15.4,30.42,East,94,0.0,0.0,84,0.00,,,0.00,Wunderground v.1.15,2013-12-11 13:31:00,
2013-12-11 08:36:00,20.0,15.4,30.42,South,184,0.0,1.0,82,0.00,,,0.00,Wunderground v.1.15,2013-12-11 13:36:00,
2013-12-11 08:42:00,20.4,15.5,30.42,South,184,0.0,0.0,81,0.00,,,0.00,Wunderground v.1.15,2013-12-11 13:42:00,
2013-12-11 08:47:00,20.8,15.9,30.42,South,182,0.0,0.0,81,0.00,,,0.00,Wunderground v.1.15,2013-12-11 13:47:00,
2013-12-11 08:52:00,21.2,16.0,30.41,SSE,166,1.0,4.0,80,0.00,,,0.00,Wunderground v.1.15,2013-12-11 13:52:00,
2013-12-11 08:58:00,21.6,16.1,30.41,SSE,152,1.0,4.0,79,0.00,,,0.00,Wunderground v.1.15,2013-12-11 13:58:00,
2013-12-11 09:03:00,22.0,16.5,30.41,SE,130,1.0,2.0,79,0.00,,,0.00,Wunderground v.1.15,2013-12-11 14:03:00,
2013-12-11 09:08:00,22.4,16.6,30.41,SE,131,1.0,2.0,78,0.00,,,0.00,Wunderground v.1.15,2013-12-11 14:08:00,
2013-12-11 09:13:00,22.8,17.0,30.40,ESE,103,1.0,1.0,78,0.00,,,0.00,Wunderground v.1.15,2013-12-11 14:13:00,
2013-12-11 09:19:00,23.3,17.5,30.41,ESE,109,1.0,2.0,78,0.00,,,0.00,Wunderground v.1.15,2013-12-11 14:19:00,
2013-12-11 09:24:00,23.5,17.0,30.41,ENE,64,1.0,2.0,76,0.00,,,0.00,Wunderground v.1.15,2013-12-11 14:24:00,
2013-12-11 09:29:00,23.6,16.8,30.41,ESE,102,2.0,5.0,75,0.00,,,0.00,Wunderground v.1.15,2013-12-11 14:29:00,
2013-12-11 09:34:00,23.8,17.3,30.41,South,189,2.0,3.0,76,0.00,,,0.00,Wunderground v.1.15,2013-12-11 14:34:00,
2013-12-11 09:40:00,23.9,16.8,30.41,SSE,158,2.0,2.0,74,0.00,,,0.00,Wunderground v.1.15,2013-12-11 14:40:00,
2013-12-11 09:45:00,24.1,17.0,30.42,SE,137,1.0,3.0,74,0.00,,,0.00,Wunderground v.1.15,2013-12-11 14:45:00,
2013-12-11 09:51:00,24.3,16.9,30.42,SE,132,2.0,2.0,73,0.00,,,0.00,Wunderground v.1.15,2013-12-11 14:51:00,
2013-12-11 09:57:00,24.8,17.1,30.41,South,178,2.0,6.0,72,0.00,,,0.00,Wunderground v.1.15,2013-12-11 14:57:00,
2013-12-11 10:02:00,25.1,16.7,30.41,ENE,63,2.0,4.0,70,0.00,,,0.00,Wunderground v.1.15,2013-12-11 15:02:00,
2013-12-11 10:07:00,25.3,16.9,30.41,ENE,76,1.0,4.0,70,0.00,,,0.00,Wunderground v.1.15,2013-12-11 15:07:00,
2013-12-11 10:12:00,25.5,16.7,30.41,NNE,33,1.0,2.0,69,0.00,,,0.00,Wunderground v.1.15,2013-12-11 15:12:00,
2013-12-11 10:18:00,25.7,16.6,30.41,WNW,298,1.0,3.0,68,0.00,,,0.00,Wunderground v.1.15,2013-12-11 15:18:00,
2013-12-11 10:23:00,25.8,16.7,30.41,East,98,1.0,2.0,68,0.00,,,0.00,Wunderground v.1.15,2013-12-11 15:23:00,
2013-12-11 10:28:00,26.0,17.2,30.41,South,169,1.0,2.0,69,0.00,,,0.00,Wunderground v.1.15,2013-12-11 15:28:00,
2013-12-11 10:33:00,26.3,17.5,30.42,ESE,113,1.0,1.0,69,0.00,,,0.00,Wunderground v.1.15,2013-12-11 15:33:00,
2013-12-11 10:39:00,26.4,16.9,30.42,SSE,154,0.0,1.0,67,0.00,,,0.00,Wunderground v.1.15,2013-12-11 15:39:00,
2013-12-11 10:44:00,26.6,16.4,30.41,NE,44,1.0,2.0,65,0.00,,,0.00,Wunderground v.1.15,2013-12-11 15:44:00,
2013-12-11 10:49:00,26.9,17.0,30.41,SE,128,1.0,2.0,66,0.00,,,0.00,Wunderground v.1.15,2013-12-11 15:49:00,
2013-12-11 10:54:00,27.4,17.2,30.41,ESE,123,1.0,2.0,65,0.00,,,0.00,Wunderground v.1.15,2013-12-11 15:54:00,
2013-12-11 10:59:00,27.7,17.1,30.41,East,100,1.0,2.0,64,0.00,,,0.00,Wunderground v.1.15,2013-12-11 15:59:00,
2013-12-11 11:05:00,27.7,16.7,30.40,East,90,1.0,2.0,63,0.00,,,0.00,Wunderground v.1.15,2013-12-11 16:05:00,
2013-12-11 11:10:00,27.9,17.3,30.40,NE,46,1.0,3.0,64,0.00,,,0.00,Wunderground v.1.15,2013-12-11 16:10:00,
2013-12-11 11:15:00,28.0,17.0,30.41,North,349,1.0,3.0,63,0.00,,,0.00,Wunderground v.1.15,2013-12-11 16:15:00,
2013-12-11 11:20:00,28.0,16.6,30.41,South,190,1.0,2.0,62,0.00,,,0.00,Wunderground v.1.15,2013-12-11 16:20:00,
2013-12-11 11:25:00,27.9,16.2,30.40,ENE,57,1.0,2.0,61,0.00,,,0.00,Wunderground v.1.15,2013-12-11 16:25:00,
2013-12-11 11:30:00,27.7,15.6,30.40,ESE,117,1.0,3.0,60,0.00,,,0.00,Wunderground v.1.15,2013-12-11 16:30:00,
2013-12-11 11:36:00,27.7,16.7,30.40,South,171,1.0,3.0,63,0.00,,,0.00,Wunderground v.1.15,2013-12-11 16:36:00,
2013-12-11 11:41:00,27.8,16.5,30.39,ENE,61,1.0,1.0,62,0.00,,,0.00,Wunderground v.1.15,2013-12-11 16:41:00,
2013-12-11 11:47:00,27.8,16.1,30.39,WSW,257,0.0,2.0,61,0.00,,,0.00,Wunderground v.1.15,2013-12-11 16:47:00,
2013-12-11 11:52:00,28.0,16.6,30.39,ENE,66,1.0,1.0,62,0.00,,,0.00,Wunderground v.1.15,2013-12-11 16:52:00,
2013-12-11 11:57:00,28.1,16.7,30.38,SSE,165,1.0,2.0,62,0.00,,,0.00,Wunderground v.1.15,2013-12-11 16:57:00,
2013-12-11 12:02:00,28.3,16.2,30.38,ENE,57,1.0,1.0,60,0.00,,,0.00,Wunderground v.1.15,2013-12-11 17:02:00,
2013-12-11 12:07:00,28.5,16.7,30.38,ENE,57,0.0,1.0,61,0.00,,,0.00,Wunderground v.1.15,2013-12-11 17:07:00,
2013-12-11 12:12:00,28.7,16.2,30.38,NNE,19,0.0,1.0,59,0.00,,,0.00,Wunderground v.1.15,2013-12-11 17:12:00,
2013-12-11 12:18:00,28.8,16.3,30.38,NE,44,1.0,5.0,59,0.00,,,0.00,Wunderground v.1.15,2013-12-11 17:18:00,
2013-12-11 12:23:00,28.8,16.3,30.37,West,281,1.0,2.0,59,0.00,,,0.00,Wunderground v.1.15,2013-12-11 17:23:00,
2013-12-11 12:28:00,28.7,15.8,30.36,ENE,62,1.0,3.0,58,0.00,,,0.00,Wunderground v.1.15,2013-12-11 17:28:00,
2013-12-11 12:34:00,28.7,15.8,30.36,SE,141,1.0,1.0,58,0.00,,,0.00,Wunderground v.1.15,2013-12-11 17:34:00,
2013-12-11 12:39:00,28.9,16.0,30.36,SE,141,0.0,1.0,58,0.00,,,0.00,Wunderground v.1.15,2013-12-11 17:39:00,
2013-12-11 12:44:00,29.0,16.1,30.35,North,360,0.0,2.0,58,0.00,,,0.00,Wunderground v.1.15,2013-12-11 17:44:00,
2013-12-11 12:49:00,29.0,16.1,30.35,NE,35,1.0,2.0,58,0.00,,,0.00,Wunderground v.1.15,2013-12-11 17:49:00,
2013-12-11 12:55:00,29.3,15.9,30.35,ENE,69,1.0,1.0,57,0.00,,,0.00,Wunderground v.1.15,2013-12-11 17:55:00,
2013-12-11 13:00:00,29.4,16.8,30.34,ESE,111,0.0,3.0,59,0.00,,,0.00,Wunderground v.1.15,2013-12-11 18:00:00,
2013-12-11 13:06:00,29.6,17.0,30.34,ESE,118,0.0,3.0,59,0.00,,,0.00,Wunderground v.1.15,2013-12-11 18:06:00,
2013-12-11 13:11:00,29.7,17.1,30.34,ESE,117,1.0,1.0,59,0.00,,,0.00,Wunderground v.1.15,2013-12-11 18:11:00,
2013-12-11 13:16:00,29.8,16.0,30.34,NE,55,1.0,1.0,56,0.00,,,0.00,Wunderground v.1.15,2013-12-11 18:16:00,
2013-12-11 13:21:00,29.8,16.0,30.34,ESE,104,0.0,3.0,56,0.00,,,0.00,Wunderground v.1.15,2013-12-11 18:21:00,
2013-12-11 13:27:00,30.0,16.6,30.34,ESE,103,0.0,3.0,57,0.00,,,0.00,Wunderground v.1.15,2013-12-11 18:27:00,
2013-12-11 13:32:00,30.1,16.7,30.33,SE,126,0.0,0.0,57,0.00,,,0.00,Wunderground v.1.15,2013-12-11 18:32:00,
2013-12-11 13:37:00,30.1,16.7,30.34,SSE,147,1.0,3.0,57,0.00,,,0.00,Wunderground v.1.15,2013-12-11 18:37:00,
2013-12-11 13:42:00,30.1,16.7,30.33,SE,128,1.0,2.0,57,0.00,,,0.00,Wunderground v.1.15,2013-12-11 18:42:00,
2013-12-11 13:48:00,30.3,17.3,30.33,SE,142,1.0,2.0,58,0.00,,,0.00,Wunderground v.1.15,2013-12-11 18:48:00,
2013-12-11 13:53:00,30.6,17.6,30.33,ESE,103,1.0,4.0,58,0.00,,,0.00,Wunderground v.1.15,2013-12-11 18:53:00,
2013-12-11 13:58:00,30.6,17.6,30.33,South,176,1.0,4.0,58,0.00,,,0.00,Wunderground v.1.15,2013-12-11 18:58:00,
2013-12-11 14:04:00,30.7,17.7,30.33,South,176,0.0,1.0,58,0.00,,,0.00,Wunderground v.1.15,2013-12-11 19:04:00,
2013-12-11 14:09:00,30.9,17.8,30.32,ESE,103,0.0,1.0,58,0.00,,,0.00,Wunderground v.1.15,2013-12-11 19:09:00,
2013-12-11 14:14:00,30.8,18.1,30.32,ESE,103,0.0,1.0,59,0.00,,,0.00,Wunderground v.1.15,2013-12-11 19:14:00,
2013-12-11 14:20:00,30.7,17.7,30.32,ESE,105,0.0,1.0,58,0.00,,,0.00,Wunderground v.1.15,2013-12-11 19:20:00,
2013-12-11 14:25:00,30.6,18.0,30.32,NE,34,1.0,4.0,59,0.00,,,0.00,Wunderground v.1.15,2013-12-11 19:25:00,
2013-12-11 14:30:00,30.5,17.9,30.32,ESE,123,1.0,1.0,59,0.00,,,0.00,Wunderground v.1.15,2013-12-11 19:30:00,
2013-12-11 14:35:00,30.5,17.9,30.31,SE,127,0.0,1.0,59,0.00,,,0.00,Wunderground v.1.15,2013-12-11 19:35:00,
2013-12-11 14:41:00,30.6,18.0,30.31,ESE,103,0.0,0.0,59,0.00,,,0.00,Wunderground v.1.15,2013-12-11 19:41:00,
2013-12-11 14:47:00,30.7,18.1,30.31,ENE,78,0.0,2.0,59,0.00,,,0.00,Wunderground v.1.15,2013-12-11 19:47:00,
2013-12-11 14:52:00,30.7,18.4,30.31,East,79,0.0,1.0,60,0.00,,,0.00,Wunderground v.1.15,2013-12-11 19:52:00,
2013-12-11 14:57:00,30.7,18.1,30.31,SE,126,0.0,2.0,59,0.00,,,0.00,Wunderground v.1.15,2013-12-11 19:57:00,
2013-12-11 15:03:00,30.7,18.1,30.31,East,98,0.0,0.0,59,0.00,,,0.00,Wunderground v.1.15,2013-12-11 20:03:00,
2013-12-11 15:08:00,30.7,18.1,30.30,East,98,0.0,0.0,59,0.00,,,0.00,Wunderground v.1.15,2013-12-11 20:08:00,
2013-12-11 15:13:00,30.7,18.1,30.30,East,98,0.0,0.0,59,0.00,,,0.00,Wunderground v.1.15,2013-12-11 20:13:00,
2013-12-11 15:18:00,30.7,19.2,30.30,SSE,164,0.0,2.0,62,0.00,,,0.00,Wunderground v.1.15,2013-12-11 20:18:00,
2013-12-11 15:24:00,30.7,19.2,30.30,SSE,164,0.0,1.0,62,0.00,,,0.00,Wunderground v.1.15,2013-12-11 20:24:00,
2013-12-11 15:29:00,30.7,18.8,30.30,SSE,164,0.0,1.0,61,0.00,,,0.00,Wunderground v.1.15,2013-12-11 20:29:00,
2013-12-11 15:34:00,30.6,18.7,30.30,SE,132,0.0,2.0,61,0.00,,,0.00,Wunderground v.1.15,2013-12-11 20:34:00,
2013-12-11 15:40:00,30.5,18.6,30.30,SE,140,1.0,1.0,61,0.00,,,0.00,Wunderground v.1.15,2013-12-11 20:40:00,
2013-12-11 15:45:00,30.4,19.3,30.30,NE,45,1.0,4.0,63,0.00,,,0.00,Wunderground v.1.15,2013-12-11 20:45:00,
2013-12-11 15:50:00,30.4,19.3,30.30,East,94,1.0,1.0,63,0.00,,,0.00,Wunderground v.1.15,2013-12-11 20:50:00,
2013-12-11 15:55:00,30.4,18.5,30.30,ENE,62,1.0,3.0,61,0.00,,,0.00,Wunderground v.1.15,2013-12-11 20:55:00,
2013-12-11 16:00:00,30.4,19.7,30.30,SE,136,0.0,0.0,64,0.00,,,0.00,Wunderground v.1.15,2013-12-11 21:00:00,
2013-12-11 16:06:00,30.4,20.0,30.30,SE,137,0.0,0.0,65,0.00,,,0.00,Wunderground v.1.15,2013-12-11 21:06:00,
2013-12-11 16:11:00,30.3,20.3,30.29,SE,135,0.0,0.0,66,0.00,,,0.00,Wunderground v.1.15,2013-12-11 21:11:00,
2013-12-11 16:16:00,30.3,19.2,30.29,SE,136,0.0,0.0,63,0.00,,,0.00,Wunderground v.1.15,2013-12-11 21:16:00,
2013-12-11 16:21:00,30.2,19.8,30.29,SE,136,0.0,0.0,65,0.00,,,0.00,Wunderground v.1.15,2013-12-11 21:21:00,
2013-12-11 16:27:00,30.1,19.4,30.29,East,88,0.0,0.0,64,0.00,,,0.00,Wunderground v.1.15,2013-12-11 21:27:00,
2013-12-11 16:33:00,29.9,20.6,30.29,East,88,0.0,0.0,68,0.00,,,0.00,Wunderground v.1.15,2013-12-11 21:33:00,
2013-12-11 16:38:00,29.6,20.7,30.29,NE,37,0.0,1.0,69,0.00,,,0.00,Wunderground v.1.15,2013-12-11 21:38:00,
2013-12-11 16:43:00,29.3,20.4,30.29,NE,37,0.0,0.0,69,0.00,,,0.00,Wunderground v.1.15,2013-12-11 21:43:00,
2013-12-11 16:49:00,28.8,19.6,30.29,NE,37,0.0,0.0,68,0.00,,,0.00,Wunderground v.1.15,2013-12-11 21:49:00,
2013-12-11 16:54:00,28.3,19.1,30.29,NE,37,0.0,0.0,68,0.00,,,0.00,Wunderground v.1.15,2013-12-11 21:54:00,
2013-12-11 16:59:00,27.9,19.0,30.29,NE,37,0.0,0.0,69,0.00,,,0.00,Wunderground v.1.15,2013-12-11 21:59:00,
2013-12-11 17:05:00,27.4,18.6,30.29,NE,37,0.0,0.0,69,0.00,,,0.00,Wunderground v.1.15,2013-12-11 22:05:00,
2013-12-11 17:10:00,27.1,18.9,30.29,NE,37,0.0,0.0,71,0.00,,,0.00,Wunderground v.1.15,2013-12-11 22:10:00,
2013-12-11 17:15:00,26.7,18.9,30.29,NE,37,0.0,0.0,72,0.00,,,0.00,Wunderground v.1.15,2013-12-11 22:15:00,
2013-12-11 17:20:00,26.3,19.1,30.28,NE,37,0.0,0.0,74,0.00,,,0.00,Wunderground v.1.15,2013-12-11 22:20:00,
2013-12-11 17:25:00,26.0,18.5,30.29,NE,37,0.0,0.0,73,0.00,,,0.00,Wunderground v.1.15,2013-12-11 22:25:00,
2013-12-11 17:31:00,25.8,18.3,30.29,NE,37,0.0,0.0,73,0.00,,,0.00,Wunderground v.1.15,2013-12-11 22:31:00,
2013-12-11 17:37:00,25.7,19.2,30.29,NE,37,0.0,0.0,76,0.00,,,0.00,Wunderground v.1.15,2013-12-11 22:37:00,
2013-12-11 17:42:00,25.5,19.0,30.29,NE,37,0.0,0.0,76,0.00,,,0.00,Wunderground v.1.15,2013-12-11 22:42:00,
2013-12-11 17:48:00,25.2,19.0,30.29,NE,37,0.0,0.0,77,0.00,,,0.00,Wunderground v.1.15,2013-12-11 22:48:00,
2013-12-11 17:53:00,24.9,19.0,30.29,NE,37,0.0,0.0,78,0.00,,,0.00,Wunderground v.1.15,2013-12-11 22:53:00,
2013-12-11 17:59:00,24.7,18.8,30.29,NE,37,0.0,0.0,78,0.00,,,0.00,Wunderground v.1.15,2013-12-11 22:59:00,
2013-12-11 18:04:00,24.6,19.3,30.29,NE,37,0.0,0.0,80,0.00,,,0.00,Wunderground v.1.15,2013-12-11 23:04:00,
2013-12-11 18:10:00,24.6,19.0,30.29,NE,37,0.0,0.0,79,0.00,,,0.00,Wunderground v.1.15,2013-12-11 23:10:00,
2013-12-11 18:15:00,24.5,18.6,30.28,NE,37,0.0,0.0,78,0.00,,,0.00,Wunderground v.1.15,2013-12-11 23:15:00,
2013-12-11 18:21:00,24.5,19.2,30.29,NE,37,0.0,0.0,80,0.00,,,0.00,Wunderground v.1.15,2013-12-11 23:21:00,
2013-12-11 18:27:00,24.4,19.7,30.29,NE,37,0.0,0.0,82,0.00,,,0.00,Wunderground v.1.15,2013-12-11 23:27:00,
2013-12-11 18:32:00,24.3,19.6,30.29,NE,37,0.0,0.0,82,0.00,,,0.00,Wunderground v.1.15,2013-12-11 23:32:00,
2013-12-11 18:37:00,24.3,19.6,30.29,NE,37,0.0,0.0,82,0.00,,,0.00,Wunderground v.1.15,2013-12-11 23:37:00,
2013-12-11 18:43:00,24.4,20.0,30.29,NE,37,0.0,0.0,83,0.00,,,0.00,Wunderground v.1.15,2013-12-11 23:43:00,
2013-12-11 18:48:00,24.5,20.1,30.29,NE,37,0.0,0.0,83,0.00,,,0.00,Wunderground v.1.15,2013-12-11 23:48:00,
2013-12-11 18:53:00,24.7,20.3,30.30,NE,37,0.0,0.0,83,0.00,,,0.00,Wunderground v.1.15,2013-12-11 23:53:00,
2013-12-11 18:58:00,24.7,20.3,30.30,NE,37,0.0,0.0,83,0.00,,,0.00,Wunderground v.1.15,2013-12-11 23:58:00,
2013-12-11 19:04:00,24.9,20.5,30.30,NE,37,0.0,0.0,83,0.00,,,0.00,Wunderground v.1.15,2013-12-12 00:04:00,
2013-12-11 19:09:00,25.1,20.4,30.30,NE,37,0.0,0.0,82,0.00,,,0.00,Wunderground v.1.15,2013-12-12 00:09:00,
2013-12-11 19:14:00,25.4,21.0,30.31,NE,37,0.0,0.0,83,0.00,,,0.00,Wunderground v.1.15,2013-12-12 00:14:00,
2013-12-11 19:20:00,25.6,20.9,30.31,NE,37,0.0,0.0,82,0.00,,,0.00,Wunderground v.1.15,2013-12-12 00:20:00,
2013-12-11 19:25:00,25.8,21.3,30.31,NE,37,0.0,0.0,83,0.00,,,0.00,Wunderground v.1.15,2013-12-12 00:25:00,
2013-12-11 19:30:00,26.0,21.3,30.31,NE,37,0.0,0.0,82,0.00,,,0.00,Wunderground v.1.15,2013-12-12 00:30:00,
2013-12-11 19:35:00,26.3,20.7,30.31,ESE,102,0.0,1.0,79,0.00,,,0.00,Wunderground v.1.15,2013-12-12 00:35:00,
2013-12-11 19:41:00,26.9,21.3,30.31,SE,125,0.0,0.0,79,0.00,,,0.00,Wunderground v.1.15,2013-12-12 00:41:00,
2013-12-11 19:46:00,27.3,21.9,30.31,SE,136,0.0,1.0,80,0.00,,,0.00,Wunderground v.1.15,2013-12-12 00:46:00,
2013-12-11 19:52:00,27.7,22.0,30.31,SE,136,0.0,1.0,79,0.00,,,0.00,Wunderground v.1.15,2013-12-12 00:52:00,
2013-12-11 19:57:00,28.0,22.0,30.31,South,170,0.0,2.0,78,0.00,,,0.00,Wunderground v.1.15,2013-12-12 00:57:00,
2013-12-11 20:03:00,28.3,21.7,30.32,SE,141,0.0,0.0,76,0.00,,,0.00,Wunderground v.1.15,2013-12-12 01:03:00,
2013-12-11 20:08:00,28.4,21.8,30.32,ENE,78,0.0,2.0,76,0.00,,,0.00,Wunderground v.1.15,2013-12-12 01:08:00,
2013-12-11 20:13:00,28.5,21.9,30.32,NE,44,0.0,3.0,76,0.00,,,0.00,Wunderground v.1.15,2013-12-12 01:13:00,
2013-12-11 20:19:00,28.6,22.3,30.32,SE,142,0.0,3.0,77,0.00,,,0.00,Wunderground v.1.15,2013-12-12 01:19:00,
2013-12-11 20:24:00,28.5,22.2,30.32,SSE,155,0.0,1.0,77,0.00,,,0.00,Wunderground v.1.15,2013-12-12 01:24:00,
2013-12-11 20:29:00,28.5,22.2,30.32,ESE,104,0.0,2.0,77,0.00,,,0.00,Wunderground v.1.15,2013-12-12 01:29:00,
2013-12-11 20:34:00,28.4,22.4,30.33,ESE,119,0.0,1.0,78,0.00,,,0.00,Wunderground v.1.15,2013-12-12 01:34:00,
2013-12-11 20:39:00,28.3,22.6,30.33,SE,144,0.0,2.0,79,0.00,,,0.00,Wunderground v.1.15,2013-12-12 01:39:00,
2013-12-11 20:45:00,28.0,22.9,30.33,SE,126,0.0,0.0,81,0.00,,,0.00,Wunderground v.1.15,2013-12-12 01:45:00,
2013-12-11 20:50:00,27.7,22.9,30.33,NW,326,0.0,0.0,82,0.00,,,0.00,Wunderground v.1.15,2013-12-12 01:50:00,
2013-12-11 20:55:00,27.5,23.0,30.33,NW,304,0.0,0.0,83,0.00,,,0.00,Wunderground v.1.15,2013-12-12 01:55:00,
2013-12-11 21:00:00,27.3,23.4,30.34,WSW,246,0.0,1.0,85,0.00,,,0.00,Wunderground v.1.15,2013-12-12 02:00:00,
2013-12-11 21:06:00,27.0,23.1,30.34,South,188,1.0,2.0,85,0.00,,,0.00,Wunderground v.1.15,2013-12-12 02:06:00,
2013-12-11 21:12:00,26.8,23.2,30.34,NE,51,0.0,1.0,86,0.00,,,0.00,Wunderground v.1.15,2013-12-12 02:12:00,
2013-12-11 21:17:00,26.7,23.1,30.34,ESE,102,0.0,1.0,86,0.00,,,0.00,Wunderground v.1.15,2013-12-12 02:17:00,
2013-12-11 21:22:00,26.5,22.9,30.34,NNE,22,0.0,1.0,86,0.00,,,0.00,Wunderground v.1.15,2013-12-12 02:22:00,
2013-12-11 21:27:00,26.2,22.3,30.35,East,90,1.0,1.0,85,0.00,,,0.00,Wunderground v.1.15,2013-12-12 02:27:00,
2013-12-11 21:33:00,26.0,22.1,30.35,ESE,103,1.0,2.0,85,0.00,,,0.00,Wunderground v.1.15,2013-12-12 02:33:00,
2013-12-11 21:38:00,25.7,21.8,30.35,NNW,348,1.0,2.0,85,0.00,,,0.00,Wunderground v.1.15,2013-12-12 02:38:00,
2013-12-11 21:44:00,25.6,21.7,30.35,North,9,0.0,0.0,85,0.00,,,0.00,Wunderground v.1.15,2013-12-12 02:44:00,
2013-12-11 21:49:00,25.5,21.6,30.35,East,98,0.0,3.0,85,0.00,,,0.00,Wunderground v.1.15,2013-12-12 02:49:00,
2013-12-11 21:54:00,25.4,21.8,30.36,East,81,1.0,2.0,86,0.00,,,0.00,Wunderground v.1.15,2013-12-12 02:54:00,
2013-12-11 21:59:00,25.4,21.8,30.36,South,173,1.0,2.0,86,0.00,,,0.00,Wunderground v.1.15,2013-12-12 02:59:00,
2013-12-11 22:05:00,25.4,21.5,30.36,NE,53,0.0,2.0,85,0.00,,,0.00,Wunderground v.1.15,2013-12-12 03:05:00,
2013-12-11 22:10:00,25.3,21.7,30.36,West,271,1.0,2.0,86,0.00,,,0.00,Wunderground v.1.15,2013-12-12 03:10:00,
2013-12-11 22:15:00,25.2,21.3,30.37,ESE,123,1.0,3.0,85,0.00,,,0.00,Wunderground v.1.15,2013-12-12 03:15:00,
2013-12-11 22:21:00,25.1,20.4,30.36,NE,43,1.0,4.0,82,0.00,,,0.00,Wunderground v.1.15,2013-12-12 03:21:00,
2013-12-11 22:26:00,25.0,20.0,30.37,ENE,74,1.0,4.0,81,0.00,,,0.00,Wunderground v.1.15,2013-12-12 03:26:00,
2013-12-11 22:32:00,25.0,20.0,30.38,SE,143,0.0,1.0,81,0.00,,,0.00,Wunderground v.1.15,2013-12-12 03:32:00,
2013-12-11 22:37:00,24.9,19.9,30.38,NNW,344,1.0,1.0,81,0.00,,,0.00,Wunderground v.1.15,2013-12-12 03:37:00,
2013-12-11 22:42:00,24.8,19.2,30.38,SSW,197,1.0,1.0,79,0.00,,,0.00,Wunderground v.1.15,2013-12-12 03:42:00,
2013-12-11 22:47:00,24.6,18.7,30.38,ESE,114,1.0,2.0,78,0.00,,,0.00,Wunderground v.1.15,2013-12-12 03:47:00,
2013-12-11 22:52:00,24.4,17.9,30.39,NNW,330,1.0,2.0,76,0.00,,,0.00,Wunderground v.1.15,2013-12-12 03:52:00,
2013-12-11 22:58:00,24.3,17.8,30.39,ESE,110,1.0,2.0,76,0.00,,,0.00,Wunderground v.1.15,2013-12-12 03:58:00,
2013-12-11 23:03:00,24.1,17.0,30.39,East,88,1.0,2.0,74,0.00,,,0.00,Wunderground v.1.15,2013-12-12 04:03:00,
2013-12-11 23:08:00,24.0,17.2,30.39,East,101,1.0,2.0,75,0.00,,,0.00,Wunderground v.1.15,2013-12-12 04:08:00,
2013-12-11 23:13:00,23.9,17.1,30.39,NNW,339,1.0,2.0,75,0.00,,,0.00,Wunderground v.1.15,2013-12-12 04:13:00,
2013-12-11 23:19:00,23.6,16.8,30.39,NW,317,1.0,2.0,75,0.00,,,0.00,Wunderground v.1.15,2013-12-12 04:19:00,
2013-12-11 23:24:00,23.3,16.2,30.40,NE,44,0.0,2.0,74,0.00,,,0.00,Wunderground v.1.15,2013-12-12 04:24:00,
2013-12-11 23:29:00,23.2,16.1,30.40,SE,136,1.0,2.0,74,0.00,,,0.00,Wunderground v.1.15,2013-12-12 04:29:00,
2013-12-11 23:35:00,22.9,16.2,30.40,South,182,1.0,2.0,75,0.00,,,0.00,Wunderground v.1.15,2013-12-12 04:35:00,
2013-12-11 23:40:00,22.7,16.3,30.41,ENE,71,0.0,0.0,76,0.00,,,0.00,Wunderground v.1.15,2013-12-12 04:40:00,
2013-12-11 23:45:00,22.4,16.3,30.41,East,85,0.0,2.0,77,0.00,,,0.00,Wunderground v.1.15,2013-12-12 04:45:00,
2013-12-11 23:50:00,22.2,15.8,30.41,East,98,0.0,3.0,76,0.00,,,0.00,Wunderground v.1.15,2013-12-12 04:50:00,
2013-12-11 23:55:00,22.0,15.9,30.41,West,260,1.0,3.0,77,0.00,,,0.00,Wunderground v.1.15,2013-12-12 04:55:00,